Location: La Fredeussais
(48.1780°N, 1.3980°W)
Time: 04:01:50
(UTC+00:00)

Cosmos 1610 Rocket - Pass Details

Date: 09 May 2021
Orbit: 952 x 1003 km, 82.9° (Epoch: 13 June)

Event Time Altitude Azimuth Distance (km) Brightness Sun altitude
Rises 22:25:28 0° 349° (N) 3,651 8.9 -20.8°
Reaches altitude 10° 22:27:59 10° 348° (NNW) 2,697 7.9 -20.9°
Maximum altitude 22:34:07 75° 264° (W) 989 4.5 -21.3°
Enters shadow 22:36:41 37° 188° (S) 1,445 4.9 -21.5°
